Regional Weather Roundup
Issued by NWS

Home | Current Version | Previous Version | Text Only | Print | Product List | Glossary Off
Versions: 1 2 3 4 5 6 7 8 9 10 11 12 13 14 15 16 17 18 19 20 21 22 23 24 25 26 27 28 29 30 31 32 33 34 35 36 37 38 39 40 41 42 43 44 45 46 47 48 49 50

508
ASUS43 KLOT 252104
RWRIL

ILLINOIS REGIONAL WEATHER ROUNDUP
NATIONAL WEATHER SERVICE CHICAGO/ROMEOVILLE IL
300 PM CST SUN FEB 25 2018

NOTE: "FAIR" INDICATES FEW OR NO CLOUDS BELOW 12,000 FEET WITH NO
SIGNIFICANT WEATHER AND/OR OBSTRUCTIONS TO VISIBILITY.

* THESE STATIONS ARE NOT UNDER NWS QUALITY CONTROL. THEY ALSO MAY NOT
  REPORT WEATHER SUCH AS PRECIPITATION OR FOG.

ILZ001-002-007-009-015-016-024-252200-
NORTHWEST ILLINOIS

CITY           SKY/WX    TMP DP  RH WIND       PRES   REMARKS
MOLINE         FAIR      47  24  40 W24G33    29.97R
STERLING*      FAIR      45  25  45 W20G26    29.96R
SAVANNA*       FAIR      44  25  48 SW16G26   29.96R
$$

ILZ003-004-008-010-011-017-018-252200-
NORTH CENTRAL ILLINOIS

CITY           SKY/WX    TMP DP  RH WIND       PRES   REMARKS
ROCKFORD       FAIR      42  23  46 W22G35    29.94R
FREEPORT*      FAIR      40  27  58 SW17G26   29.94S
ROCHELLE*      FAIR      42  29  60 W26G33    29.96R
DE KALB*       FAIR      43  25  49 SW26G35   29.96R
PERU*          FAIR      45  24  43 W18G28    29.99S
$$

ILZ005-006-012>014-019>023-252200-
NORTHEAST ILLINOIS

CITY           SKY/WX    TMP DP  RH WIND       PRES   REMARKS
CHICAGO-OHARE  FAIR      44  24  45 SW21G35   29.94R
CHICAGO-MIDWAY FAIR      45  24  43 SW20G32   29.97R
AURORA         FAIR      44  27  51 SW24G31   29.97R
LANSING*       FAIR      44  26  50 W20G29    29.99R
JOLIET*        FAIR      46  26  45 W10G23    29.99R
WAUKEGAN       FAIR      43  23  45 SW16G25   29.91R
DUPAGE AIRPORT FAIR      44  27  51 SW22G32   29.96R
KANKAKEE*      FAIR      44  26  48 W17G24    30.03R
WHEELING       FAIR      45  24  43 SW16G29   29.95R
MORRIS*        FAIR      45  26  48 W24G30    29.98S
ROMEOVILLE*    FAIR      44  26  50 W20G29    29.98R
NORTHERLY ISL    N/A     44  17  34 W20         N/A
$$

LMZ740>746-252200-
SOUTHERN LAKE MICHIGAN

STATION/POSITION SKY/WX   TEMP    WIND        PRES    VSBY  WAVE
                          AIR SEA DIR/SP/G                  HT/PER
                          (F)     (DEG/KT/KT) (MB)    (MI)  (FT/S)
HARRISON CRIB              43     260/ 22/ 28   N/A
BURNHAM HARBOR             43     240/ 10/ 19   N/A
CALUMET HARBOR             44     210/ 13/ 22 1014.0R
BURNS HARBOR               42     240/ 14/ 27 1015.6R
MICHIGAN CITY              39     230/ 21/ 22   N/A
$$

ILZ025>027-034>036-040-047-049-050-058-095>099-252200-
WEST-CENTRAL ILLINOIS

CITY           SKY/WX    TMP DP  RH WIND       PRES   REMARKS
QUINCY         SUNNY     48  23  37 W17G23    30.06R
GALESBURG*     FAIR      46  28  49 SW15G22   30.02S
MACOMB*        SUNNY    N/A N/A N/A SW16      30.05S
JACKSONVILLE*  SUNNY     47  26  43 SW9G16    30.08R
PITTSFIELD*    SUNNY     48  26  41 SW16G22   30.09R
$$

ILZ028>032-037-038-041>044-048-051>054-059>061-252200-
CENTRAL ILLINOIS

CITY           SKY/WX    TMP DP  RH WIND       PRES   REMARKS
BLOOMINGTON    FAIR      45  25  45 W18       30.04R
DECATUR        FAIR      47  27  45 W13       30.07R
PEORIA         FAIR      47  21  35 W13G26    30.03R
LACON*         FAIR      47  20  35 SW17G25   30.00S
LINCOLN*       FAIR      48  25  39 SW8       30.06R
SPRINGFIELD    FAIR      48  25  40 W13G22    30.08R
TAYLORVILLE    FAIR      47  30  51 SW12G18   30.09R
$$

ILZ033-039-045-046-055>057-062-063-252200-
EAST-CENTRAL ILLINOIS

CITY           SKY/WX    TMP DP  RH WIND       PRES   REMARKS
CHAMPAIGN      FAIR      46  32  58 SW20      30.06R
DANVILLE*      FAIR      44  31  60 SW21      30.03R
RANTOUL*       FAIR      47  33  59 W15G23    30.05S
MATTOON        FAIR      47  29  49 SW12G18   30.09R
PARIS*         FAIR      46  31  56 W14G22    30.10R
$$

ILZ079-100>102-252200-
SOUTHWEST ILLINOIS

CITY           SKY/WX    TMP DP  RH WIND       PRES   REMARKS
ALTON          MOSUNNY   50  27  40 W12       30.11R
BELLEVILLE     SUNNY     52  26  36 SW8       30.09S
CAHOKIA*       SUNNY     51  23  33 CALM      30.10R
SPARTA*        PTSUNNY   51  32  49 SW7       30.11F
$$

ILZ064>066-069>071-074>076-080>082-084>086-088>090-092>094-252200-
SOUTH-CENTRAL ILLINOIS

CITY           SKY/WX    TMP DP  RH WIND       PRES   REMARKS
CARBONDALE     FAIR      50  28  42 NW6       30.10S
CAIRO*         FAIR      48  32  54 SW5       30.13R
EFFINGHAM*     FAIR      49  32  53 SW9       30.11S
MARION         PTSUNNY   50  25  37 CALM      30.11F
MT. VERNON     FAIR      50  28  42 W6        30.11S
CENTRALIA*     MOSUNNY   49  34  54 W8        30.10S
SALEM*         FAIR      49  32  52 W10       30.10S
METROPOLIS*    FAIR      50  32  50 SW5       30.12R
$$

ILZ067-068-072-073-078-083-087-091-252200-
SOUTHEAST ILLINOIS

CITY           SKY/WX    TMP DP  RH WIND       PRES   REMARKS
LAWRENCEVILLE    N/A     50  32  50 SW10      30.10S
FLORA*         FAIR      50  32  50 W10       30.10S
FAIRFIELD*     FAIR      50  30  47 MISG      30.09F
HARRISBURG*    FAIR      51  31  45 NW3       30.10F
ROBINSON*      FAIR      47  34  61 SW12      30.11S
CARMI*         FAIR      49  33  53 W7        30.10S
$$

ABBREVIATIONS USED IN REMARKS
   TC - TEMPERATURE IN CELSIUS
  WCI - WIND CHILL INDEX
   HX - HEAT INDEX
  VSB - VISIBILITY
$$





USA.gov is the U.S. government's official web portal to all federal, state and local government web resources and services.